{"data":{"norad_id":63959,"intl_designator":"2025-099H","name":"STARLINK-34099","alt_names":[],"object_type":"PAYLOAD","status":"ACTIVE","operator":null,"country":"US","launch_date":"2025-05-13","launch_site_code":"AFETR","launch_vehicle":null,"mission":null,"orbit_class":"UNKNOWN","rcs_meters":null,"size_class":null,"mass_kg":null,"dimensions":null,"purposes":["comms"],"wikipedia_slug":null,"has_3d_model":false,"image_url":null,"decayed_at":null,"tle_current":{"epoch":"2026-09-20T02:08:33.490464Z","epoch_age_seconds":182617,"freshness":"STALE","line1":"1 63959U 25099H   26263.08927651  .00010675  00000+0  39665-3 0  9994","line2":"2 63959  43.0017 158.6652 0001280 266.1748  93.8957 15.27599893 77066","mean_motion":15.27599893,"eccentricity":0.000128,"inclination_deg":43.0017,"raan_deg":158.6652,"arg_perigee_deg":266.1748,"mean_anomaly_deg":93.8957,"bstar":0.00039665,"rev_number":7706,"period_min":94.265521135383,"perigee_km":482.11130569178,"apogee_km":483.86775408343,"semimajor_km":6861.1265298876,"source":"CELESTRAK","updated_at":"2026-09-21T09:00:35.175089Z"}}}